SCOUT X-1 DEB

Satellite information

Favourite Embed

Satellite Type and Status

DEBRISIN ORBIT

Key statistics

Satellite SCOUT X-1 DEB at a glance.

Uptime

23460

Days in orbit

Revolutions

≈ 14.8

Per day

Orbit

LEO

Low Earth Orbit

Inclination

39.0

Latest

Satellite identification and parameters

Extended collection of information and parameters for SCOUT X-1 DEB.

Object identification

Identified? True

Debris? True

Object name: SCOUT X-1 DEB

International designator: 1961-004F

Object number (NORAD): 3927

Object ID (CCSDS): 3927

Country: UNITED STATES OF AMERICA (US)

Current information (Y/N): Y

RCS size: SMALL

Orbital parameters

Period: 97.128 minutes

Inclination: 38.9732 deg

SMA: 6999.314 km

Apoapsis: 757.503 km

Periapsis: 484.855 km

RAAN: 170.8792 deg

Eccentricy: 0.0194768

Argument of periapsis: 54.0184 deg

Mean anomaly: 307.8476 deg

Mean motion: 14.82584776 rev/day

Mean motion (dot): 0.00039481 rev/day2

B* drag term: 0.0034471 1/REarth

Two-line elements (TLE)

Creation date: May 10, 2025, 5:27 p.m.

Reference frame: TEME

Reference center: EARTH

Epoch: May 10, 2025, 6:58 a.m. UTC

TLE line 0: 0 SCOUT X-1 DEB

TLE line 1: 1 03927U 61004F 25130.29030461 .00039481 00000-0 34471-2 0 9994

TLE line 2: 2 03927 38.9732 170.8792 0194768 54.0184 307.8476 14.82584776 70257

Live tracking on map

Real-time ground track for satellite SCOUT X-1 DEB.

In-orbit conjunctions

A list of the most updated potential collisions computed for object SCOUT X-1 DEB.

Target Orbit TCA Probability of collision Miss distance Type
SL-8 R/B LEO 2025-02-13 09:23:50 0.0001449994 29.0 (m) ROCKET BODY

Associated space launch

SCOUT X-1 DEB was lifted into orbit during the mission ‘Scout X-1 | Explorer 9’, on board a Scout X-1 space rocket.

The launch took place on Feb. 16, 1961, 1:05 p.m. from Launch Area 3.

For more information about the launch, click the button.

Launch to space Scout X-1 | Explorer 9
Scout X-1 | Explorer 9

Agency: N/A

Status: Launch Successful

Launch date: Feb. 16, 1961, 1:05 p.m. UTC

Rocket: Scout X-1

Launch pad: Launch Area 3

Location: Wallops Flight Facility, Virginia, USA

...

Latest news about this satellite

There are no fresh news available about this satellite. Check back as we update our databases every day.


Newsletter sign-up

Weekly statistics, charts and insights to help you stay on top of the space industry.